Date String (YYYY-MM-DD hh:mm:ss) UTC,Instrument flags,absolute air pressure of the measurement (hPa),sample flow rate (lpm),inlet stack bypass flow (lpm),air temperature of the measurement (°C),ambient temperature measured by the external sensor (°C),aerosol sample conditioner tube jacket temperature (°C),OPC LED temperature (°C),internal box temperature (°C),relative humidity of the measurement (%),span deviation,mass concentration of particles derived from Lorenz-Mie calculation of OPC scattering (μg/m³),mass concentration of particles derived from Lorenz-Mie calculation of OPC scattering (μg/m³),mass concentration of particles derived from Lorenz-Mie calculation of OPC scattering (μg/m³)
DateTimeUTC,F1_M11,P_M11,Q1_M11,Q2_M11,T1_M11,T2_M11,T3_M11,T4_M11,T5_M11,U1_M11,ZSPAN_M11,X0_M11,X2_M11,X1_M11
2023-07-16 04:00:00,SystemResetWarning,0835.5,5.01,000.00,030.2,026.2,000.0,038.4,031.1,33.7,-000.7,0017.47,0007.46,0006.40
2023-07-16 04:01:00,SystemResetWarning,0835.6,5.00,000.00,030.1,025.5,000.0,038.3,030.8,33.8,-000.3,0016.47,0007.52,0006.42
2023-07-16 04:02:00,SystemResetWarning,0835.5,5.01,000.00,029.9,025.7,000.0,038.3,030.7,34.0,-000.2,0016.93,0007.52,0006.44
2023-07-16 04:03:00,SystemResetWarning,0835.6,5.01,000.00,029.9,026.0,000.0,038.3,030.7,34.0,0000.2,0017.19,0007.60,0006.47
2023-07-16 04:04:00,SystemResetWarning,0835.5,4.99,000.00,029.8,026.4,000.0,038.3,030.8,33.9,0000.3,0017.37,0007.70,0006.51
2023-07-16 04:05:00,SystemResetWarning,0835.6,5.00,000.00,029.8,026.8,000.0,038.3,030.9,33.8,0000.3,0016.67,0007.77,0006.55
2023-07-16 04:06:00,SystemResetWarning,0835.6,5.00,000.00,029.8,027.2,000.0,038.3,030.9,33.6,0000.8,0016.85,0007.79,0006.57
2023-07-16 04:07:00,SystemResetWarning,0835.6,4.99,000.00,029.8,027.4,000.0,038.3,031.0,33.3,0000.9,0016.55,0007.78,0006.58
2023-07-16 04:08:00,SystemResetWarning,0835.6,4.99,000.00,029.8,027.7,000.0,038.3,031.1,33.2,0001.3,0016.56,0007.79,0006.61
2023-07-16 04:09:00,SystemResetWarning,0835.6,5.00,000.00,029.9,027.9,000.0,038.3,031.1,33.4,0001.4,0017.77,0007.83,0006.63
2023-07-16 04:10:00,SystemResetWarning,0835.5,5.00,000.00,029.9,028.0,000.0,038.3,031.2,33.1,0000.8,0017.84,0007.92,0006.66
2023-07-16 04:11:00,SystemResetWarning,0835.6,5.00,000.00,029.9,028.2,000.0,038.3,031.2,33.0,0000.7,0018.41,0007.94,0006.67
2023-07-16 04:12:00,SystemResetWarning,0835.6,4.99,000.00,029.9,027.3,000.0,038.2,031.2,33.2,-000.2,0018.64,0007.92,0006.68
2023-07-16 04:13:00,SystemResetWarning,0835.5,5.01,000.00,029.9,025.8,000.0,038.1,030.9,33.3,-000.4,0018.47,0007.93,0006.68
2023-07-16 04:14:00,SystemResetWarning,0835.5,5.01,000.00,029.8,025.4,000.0,038.0,030.7,33.5,-001.1,0018.88,0007.87,0006.67
2023-07-16 04:15:00,SystemResetWarning,0835.5,5.01,000.00,029.6,025.6,000.0,038.0,030.5,33.8,-000.8,0018.10,0007.80,0006.65
2023-07-16 04:16:00,SystemResetWarning,0835.5,5.00,000.00,029.6,026.0,000.0,038.0,030.6,34.0,-000.7,0018.15,0007.78,0006.65
2023-07-16 04:17:00,SystemResetWarning,0835.5,5.00,000.00,029.6,026.4,000.0,038.0,030.7,34.0,-001.5,0019.05,0007.82,0006.64
2023-07-16 04:18:00,SystemResetWarning,0835.5,5.00,000.00,029.6,026.8,000.0,038.1,030.8,34.0,-001.6,0019.71,0007.85,0006.62
2023-07-16 04:19:00,SystemResetWarning,0835.5,5.00,000.00,029.6,027.1,000.0,038.0,030.8,34.0,-001.9,0019.99,0007.85,0006.59
2023-07-16 04:20:00,SystemResetWarning,0835.5,4.99,000.00,029.6,027.4,000.0,038.1,030.9,32.9,-001.5,0018.66,0007.88,0006.58
2023-07-16 04:21:00,SystemResetWarning,0835.5,5.00,000.00,029.6,027.6,000.0,038.1,031.0,32.9,-000.8,0018.01,0007.84,0006.56
2023-07-16 04:22:00,SystemResetWarning,0835.5,5.01,000.00,029.6,027.8,000.0,038.1,031.0,32.9,-001.0,0017.43,0007.82,0006.54
2023-07-16 04:23:00,SystemResetWarning,0835.5,5.00,000.00,029.6,028.0,000.0,038.1,031.1,33.0,-000.3,0017.04,0007.80,0006.53
2023-07-16 04:24:00,SystemResetWarning,0835.3,4.99,000.00,029.7,028.1,000.0,038.1,031.1,33.0,-000.1,0016.80,0007.79,0006.52
2023-07-16 04:25:00,SystemResetWarning,0835.4,4.98,000.00,029.7,027.8,000.0,038.1,031.2,33.0,0000.2,0016.04,0007.79,0006.52
2023-07-16 04:26:00,SystemResetWarning,0835.2,5.00,000.00,029.7,026.2,000.0,037.9,030.9,33.0,-000.2,0016.16,0007.77,0006.50
2023-07-16 04:27:00,SystemResetWarning,0835.3,5.00,000.00,029.6,025.4,000.0,037.8,030.7,33.1,-000.2,0015.94,0007.73,0006.48
2023-07-16 04:28:00,SystemResetWarning,0835.3,5.02,000.00,029.5,025.5,000.0,037.8,030.5,33.4,-000.3,0014.86,0007.65,0006.47
2023-07-16 04:29:00,SystemResetWarning,0835.2,4.99,000.00,029.4,025.8,000.0,037.8,030.5,33.6,-000.5,0014.53,0007.60,0006.46
2023-07-16 04:30:00,SystemResetWarning,0835.2,5.00,000.00,029.4,026.2,000.0,037.9,030.6,33.5,-000.2,0015.99,0007.59,0006.45
2023-07-16 04:31:00,SystemResetWarning,0835.1,5.00,000.00,029.4,026.6,000.0,037.9,030.7,33.4,-000.6,0017.28,0007.50,0006.44
2023-07-16 04:32:00,SystemResetWarning,0835.1,5.00,000.00,029.4,027.0,000.0,037.9,030.8,33.1,-000.7,0017.82,0007.44,0006.44
2023-07-16 04:33:00,SystemResetWarning,0835.2,4.99,000.00,029.4,027.2,000.0,037.9,030.8,32.9,-000.1,0017.77,0007.42,0006.44
2023-07-16 04:34:00,SystemResetWarning,0835.2,5.00,000.00,029.4,027.5,000.0,037.9,030.9,32.8,-000.2,0018.10,0007.48,0006.42
2023-07-16 04:35:00,SystemResetWarning,0835.2,5.00,000.00,029.4,027.7,000.0,037.9,031.0,32.9,-000.2,0017.91,0007.42,0006.38
2023-07-16 04:36:00,SystemResetWarning,0835.2,5.00,000.00,029.5,027.9,000.0,037.9,031.0,33.0,-000.1,0018.16,0007.37,0006.35
2023-07-16 04:37:00,SystemResetWarning,0835.2,5.00,000.00,029.5,028.0,000.0,037.9,031.1,32.8,0000.1,0018.78,0007.35,0006.33
2023-07-16 04:38:00,SystemResetWarning,0835.2,5.01,000.00,029.5,028.2,000.0,037.9,031.1,32.7,0000.0,0019.12,0007.34,0006.31
2023-07-16 04:39:00,SystemResetWarning,0835.2,5.00,000.00,029.6,027.7,000.0,037.9,031.1,32.7,0000.1,0019.59,0007.33,0006.31
2023-07-16 04:40:00,SystemResetWarning,0835.2,4.99,000.00,029.5,026.0,000.0,037.8,030.8,32.9,-000.1,0019.11,0007.35,0006.31
2023-07-16 04:41:00,SystemResetWarning,0835.3,5.01,000.00,029.4,025.4,000.0,037.7,030.6,33.1,-000.5,0017.33,0007.29,0006.30
2023-07-16 04:42:00,SystemResetWarning,0835.3,5.01,000.00,029.3,025.5,000.0,037.7,030.5,33.0,-000.3,0014.97,0007.26,0006.29
2023-07-16 04:43:00,SystemResetWarning,0835.3,5.00,000.00,029.3,025.9,000.0,037.7,030.5,32.7,-000.4,0014.72,0007.23,0006.24
2023-07-16 04:44:00,SystemResetWarning,0835.3,5.00,000.00,029.2,026.3,000.0,037.7,030.6,32.7,-001.5,0015.15,0007.20,0006.22
2023-07-16 04:45:00,SystemResetWarning,0835.3,5.01,000.00,029.3,026.7,000.0,037.8,030.7,32.5,-002.1,0014.88,0007.11,0006.20
2023-07-16 04:46:00,SystemResetWarning,0835.3,5.00,000.00,029.3,027.0,000.0,037.8,030.7,32.3,-002.2,0016.47,0007.14,0006.21
2023-07-16 04:47:00,SystemResetWarning,0835.2,5.00,000.00,029.3,027.3,000.0,037.8,030.8,32.2,-001.8,0016.89,0007.22,0006.23
2023-07-16 04:48:00,SystemResetWarning,0835.2,5.00,000.00,029.3,027.5,000.0,037.8,030.8,32.1,-002.5,0016.16,0007.22,0006.24
2023-07-16 04:49:00,SystemResetWarning,0835.1,5.00,000.00,029.3,027.7,000.0,037.8,030.9,32.0,-002.2,0016.29,0007.24,0006.24
2023-07-16 04:50:00,SystemResetWarning,0835.1,5.00,000.00,029.4,027.9,000.0,037.8,031.0,31.9,-002.3,0016.12,0007.27,0006.23
2023-07-16 04:51:00,SystemResetWarning,0835.1,5.00,000.00,029.4,028.0,000.0,037.8,031.0,31.9,-001.4,0016.36,0007.23,0006.22
2023-07-16 04:52:00,SystemResetWarning,0835.1,4.99,000.00,029.4,028.1,000.0,037.8,031.0,31.8,-001.4,0016.83,0007.26,0006.21
2023-07-16 04:53:00,SystemResetWarning,0835.1,4.99,000.00,029.5,028.1,000.0,037.8,031.1,31.7,-001.0,0017.01,0007.30,0006.22
2023-07-16 04:54:00,SystemResetWarning,0835.0,4.99,000.00,029.5,026.6,000.0,037.7,030.9,31.6,-000.1,0016.61,0007.34,0006.26
2023-07-16 04:55:00,SystemResetWarning,0835.0,5.01,000.00,029.4,025.5,000.0,037.6,030.7,31.9,0000.0,0016.65,0007.39,0006.28
2023-07-16 04:56:00,SystemResetWarning,0835.0,5.01,000.00,029.3,025.4,000.0,037.6,030.5,31.9,-000.1,0016.96,0007.44,0006.30
2023-07-16 04:57:00,SystemResetWarning,0834.9,4.99,000.00,029.2,025.7,000.0,037.7,030.4,32.0,-000.1,0015.94,0007.44,0006.31
2023-07-16 04:58:00,SystemResetWarning,0834.9,4.99,000.00,029.2,026.1,000.0,037.7,030.5,32.0,-000.9,0015.21,0007.43,0006.31
2023-07-16 04:59:00,SystemResetWarning,0834.9,5.00,000.00,029.2,026.5,000.0,037.7,030.6,32.0,-000.3,0015.80,0007.52,0006.33
